Погода в Артыште

Россия / Кемеровская область (Кузбасс)     54°10′42″N   86°16′43″E
темп.,
°C
ветер,
м/с
пор.,
м/с
влажн.,
%
обл.,
%
осадки,
мм/ч
давл.,
гПа
погр.,
м
22 октября, пт
пт2201:00+8ю354980 0.0 101371
04:00+7ююв4753100 0.0 101292
07:00+8ю41154100 0.0 1013206
10:00+9юз61449100 0.0 1014393
13:00+9зюз81569100 0.0 10171064
16:00+5юз61270100 0.1 10201009
19:00+6зюз51059100 0.1 10231285
22:00+4юз51260100 0.0 10251396
23 октября, сб
сб2301:00+3юз612615 0.0 1027712
04:00+2ююз612635 0.0 1027527
07:00+2ююз61364100 0.0 1027845
10:00+3ююз8175660 0.0 10261494
13:00+6юз9184664 0.0 10241691
16:00+6юз91847100 0.0 10221485
19:00+6юз102052100 0.0 10211322
22:00+3юз102287100 1.6 10201283
24 октября, вс
вс2401:00+3юз102092100 2.5 10201129
04:00+4юз91894100 0.4 10211033
07:00+5юз91876100 0.6 1021866
10:00+5юз101880100 0.1 1021920
13:00+6юз9166999 0.2 10211022
16:00+7юз814689 0.0 1022934
19:00+7юз71470100 0.0 1024740
22:00+6юз61474100 0.0 1025444
25 октября, пн
пн2501:00+5ююз5117782 0.0 1025323
04:00+6ююз51177100 0.0 1024342
07:00+6ююз51175100 0.0 1023372
10:00+7ююз61469100 0.0 1021512
13:00+10ююз7146070 0.0 1020767
16:00+11юз61358100 0.0 1019861
19:00+9юз61463100 0.0 1020544
22:00+8юз5136797 0.0 1020415
26 октября, вт
вт2601:00+6юз377814 0.0 1021124
04:00+4ююз218213 0.0 102113
07:00+4ю22835 0.0 102121
10:00+6ююв2576100 0.0 1020147
13:00+10ююв3560100 0.0 1017315
16:00+10юв356395 0.0 1014248
19:00+6ююв357790 0.0 101379
22:00+7ю4117360 0.0 1012186